Year,Month,Day,Hour,Minute,Value (Times are PST for windgust in km/hr)
2010,06,02,00,00,11.30
2010,06,02,00,01,9.60
2010,06,02,00,02,25.70
2010,06,02,00,03,6.40
2010,06,02,00,04,6.40
2010,06,02,00,05,11.30
2010,06,02,00,06,11.30
2010,06,02,00,07,14.50
2010,06,02,00,08,11.30
2010,06,02,00,09,4.80
2010,06,02,00,10,14.50
2010,06,02,00,11,19.30
2010,06,02,00,12,14.50
2010,06,02,00,13,6.40
2010,06,02,00,14,9.60
2010,06,02,00,15,8.10
2010,06,02,00,16,16.10
2010,06,02,00,17,16.10
2010,06,02,00,18,19.30
2010,06,02,00,19,17.70
2010,06,02,00,20,11.30
2010,06,02,00,21,11.30
2010,06,02,00,22,8.10
2010,06,02,00,23,16.10
2010,06,02,00,24,9.60
2010,06,02,00,25,11.30
2010,06,02,00,26,14.50
2010,06,02,00,27,11.30
2010,06,02,00,28,6.40
2010,06,02,00,29,11.30
2010,06,02,00,30,9.60
2010,06,02,00,31,8.10
2010,06,02,00,32,8.10
2010,06,02,00,33,11.30
2010,06,02,00,34,8.10
2010,06,02,00,35,9.60
2010,06,02,00,36,11.30
2010,06,02,00,37,11.30
2010,06,02,00,38,16.10
2010,06,02,00,39,6.40
2010,06,02,00,40,14.50
2010,06,02,00,41,8.10
2010,06,02,00,42,9.60
2010,06,02,00,43,9.60
2010,06,02,00,44,9.60
2010,06,02,00,45,14.50
2010,06,02,00,46,20.90
2010,06,02,00,47,16.10
2010,06,02,00,48,6.40
2010,06,02,00,49,9.60
2010,06,02,00,50,16.10
2010,06,02,00,51,16.10
2010,06,02,00,52,17.70
2010,06,02,00,53,9.60
2010,06,02,00,54,11.30
2010,06,02,00,55,16.10
2010,06,02,00,56,9.60
2010,06,02,00,57,8.10
2010,06,02,00,58,14.50
2010,06,02,00,59,8.10
2010,06,02,01,00,9.60
2010,06,02,01,01,11.30
2010,06,02,01,02,16.10
2010,06,02,01,03,16.10
2010,06,02,01,04,8.10
2010,06,02,01,05,11.30
2010,06,02,01,06,11.30
2010,06,02,01,07,24.20
2010,06,02,01,08,9.60
2010,06,02,01,09,17.70
2010,06,02,01,10,6.40
2010,06,02,01,11,19.30
2010,06,02,01,12,8.10
2010,06,02,01,13,16.10
2010,06,02,01,14,16.10
2010,06,02,01,15,11.30
2010,06,02,01,16,14.50
2010,06,02,01,17,9.60
2010,06,02,01,18,9.60
2010,06,02,01,19,9.60
2010,06,02,01,20,14.50
2010,06,02,01,21,11.30
2010,06,02,01,22,8.10
2010,06,02,01,23,14.50
2010,06,02,01,24,6.40
2010,06,02,01,25,4.80
2010,06,02,01,26,4.80
2010,06,02,01,27,8.10
2010,06,02,01,28,8.10
2010,06,02,01,29,8.10
2010,06,02,01,30,6.40
2010,06,02,01,31,6.40
2010,06,02,01,32,6.40
2010,06,02,01,33,3.20
2010,06,02,01,34,3.20
2010,06,02,01,35,8.10
2010,06,02,01,36,11.30
2010,06,02,01,37,6.40
2010,06,02,01,38,6.40
2010,06,02,01,39,6.40
2010,06,02,01,40,6.40
2010,06,02,01,41,11.30
2010,06,02,01,42,4.80
2010,06,02,01,43,4.80
2010,06,02,01,44,6.40
2010,06,02,01,45,4.80
2010,06,02,01,46,4.80
2010,06,02,01,47,8.10
2010,06,02,01,48,8.10
2010,06,02,01,49,6.40
2010,06,02,01,50,9.60
2010,06,02,01,51,6.40
2010,06,02,01,52,14.50
2010,06,02,01,53,9.60
2010,06,02,01,54,9.60
2010,06,02,01,55,6.40
2010,06,02,01,56,9.60
2010,06,02,01,57,4.80
2010,06,02,01,58,11.30
2010,06,02,01,59,6.40
2010,06,02,02,00,9.60
2010,06,02,02,01,8.10
2010,06,02,02,02,9.60
2010,06,02,02,03,11.30
2010,06,02,02,04,9.60
2010,06,02,02,05,9.60
2010,06,02,02,06,9.60
2010,06,02,02,07,8.10
2010,06,02,02,08,6.40
2010,06,02,02,09,9.60
2010,06,02,02,10,9.60
2010,06,02,02,11,14.50
2010,06,02,02,12,8.10
2010,06,02,02,13,6.40
2010,06,02,02,14,14.50
2010,06,02,02,15,6.40
2010,06,02,02,16,8.10
2010,06,02,02,17,6.40
2010,06,02,02,18,12.90
2010,06,02,02,19,8.10
2010,06,02,02,20,4.80
2010,06,02,02,21,1.60
2010,06,02,02,22,8.10
2010,06,02,02,23,8.10
2010,06,02,02,24,11.30
2010,06,02,02,25,4.80
2010,06,02,02,26,3.20
2010,06,02,02,27,9.60
2010,06,02,02,28,3.20
2010,06,02,02,29,1.60
2010,06,02,02,30,1.60
2010,06,02,02,31,6.40
2010,06,02,02,32,8.10
2010,06,02,02,33,6.40
2010,06,02,02,34,3.20
2010,06,02,02,35,1.60
2010,06,02,02,36,1.60
2010,06,02,02,37,4.80
2010,06,02,02,38,6.40
2010,06,02,02,39,3.20
2010,06,02,02,40,3.20
2010,06,02,02,41,1.60
2010,06,02,02,42,4.80
2010,06,02,02,43,4.80
2010,06,02,02,44,1.60
2010,06,02,02,46,1.60
2010,06,02,02,47,1.60
2010,06,02,02,48,4.80
2010,06,02,02,49,4.80
2010,06,02,02,50,1.60
2010,06,02,02,51,1.60
2010,06,02,02,52,1.60
2010,06,02,02,53,1.60
2010,06,02,02,55,1.60
2010,06,02,02,56,1.60
2010,06,02,02,59,1.60
2010,06,02,03,01,3.20
2010,06,02,03,06,3.20
2010,06,02,03,07,3.20
2010,06,02,03,08,3.20
2010,06,02,03,09,4.80
2010,06,02,03,10,3.20
2010,06,02,03,11,4.80
2010,06,02,03,12,3.20
2010,06,02,03,13,4.80
2010,06,02,03,14,6.40
2010,06,02,03,15,4.80
2010,06,02,03,16,4.80
2010,06,02,03,17,4.80
2010,06,02,03,18,3.20
2010,06,02,03,19,3.20
2010,06,02,03,20,1.60
2010,06,02,03,21,1.60
2010,06,02,03,22,1.60
2010,06,02,03,23,1.60
2010,06,02,03,24,1.60
2010,06,02,03,25,1.60
2010,06,02,03,26,3.20
2010,06,02,03,27,1.60
2010,06,02,03,28,1.60
2010,06,02,03,29,3.20
2010,06,02,03,30,1.60
2010,06,02,03,31,3.20
2010,06,02,03,32,3.20
2010,06,02,03,33,3.20
2010,06,02,03,34,4.80
2010,06,02,03,35,1.60
2010,06,02,03,36,3.20
2010,06,02,03,37,1.60
2010,06,02,03,39,3.20
2010,06,02,03,40,4.80
2010,06,02,03,41,4.80
2010,06,02,03,42,4.80
2010,06,02,03,43,3.20
2010,06,02,03,44,1.60
2010,06,02,03,45,1.60
2010,06,02,03,47,1.60
2010,06,02,03,49,3.20
2010,06,02,03,50,1.60
2010,06,02,03,51,1.60
2010,06,02,03,52,1.60
2010,06,02,03,53,1.60
2010,06,02,03,54,3.20
2010,06,02,03,55,1.60
2010,06,02,03,56,1.60
2010,06,02,03,57,1.60
2010,06,02,03,59,1.60
2010,06,02,04,00,3.20
2010,06,02,04,01,3.20
2010,06,02,04,02,4.80
2010,06,02,04,03,4.80
2010,06,02,04,04,4.80
2010,06,02,04,05,4.80
2010,06,02,04,06,4.80
2010,06,02,04,07,1.60
2010,06,02,04,08,1.60
2010,06,02,04,09,1.60
2010,06,02,04,10,3.20
2010,06,02,04,11,4.80
2010,06,02,04,12,6.40
2010,06,02,04,13,1.60
2010,06,02,04,15,6.40
2010,06,02,04,16,3.20
2010,06,02,04,17,1.60
2010,06,02,04,18,1.60
2010,06,02,04,19,3.20
2010,06,02,04,20,1.60
2010,06,02,04,21,1.60
2010,06,02,04,22,3.20
2010,06,02,04,23,1.60
2010,06,02,04,24,3.20
2010,06,02,04,25,1.60
2010,06,02,04,27,3.20
2010,06,02,04,28,1.60
2010,06,02,04,29,3.20
2010,06,02,04,30,1.60
2010,06,02,04,31,1.60
2010,06,02,04,32,3.20
2010,06,02,04,34,1.60
2010,06,02,04,37,3.20
2010,06,02,04,38,1.60
2010,06,02,04,41,3.20
2010,06,02,04,42,1.60
2010,06,02,04,47,1.60
2010,06,02,04,48,1.60
2010,06,02,04,49,1.60
2010,06,02,04,50,3.20
2010,06,02,04,51,3.20
2010,06,02,04,53,1.60
2010,06,02,04,54,3.20
2010,06,02,04,55,4.80
2010,06,02,04,56,4.80
2010,06,02,04,58,4.80
2010,06,02,04,59,1.60
2010,06,02,05,03,4.80
2010,06,02,05,04,4.80
2010,06,02,05,05,3.20
2010,06,02,05,06,4.80
2010,06,02,05,07,4.80
2010,06,02,05,08,3.20
2010,06,02,05,09,3.20
2010,06,02,05,10,6.40
2010,06,02,05,11,4.80
2010,06,02,05,12,4.80
2010,06,02,05,13,3.20
2010,06,02,05,14,4.80
2010,06,02,05,15,6.40
2010,06,02,05,16,8.10
2010,06,02,05,17,8.10
2010,06,02,05,18,9.60
2010,06,02,05,19,11.30
2010,06,02,05,20,11.30
2010,06,02,05,21,9.60
2010,06,02,05,22,8.10
2010,06,02,05,23,9.60
2010,06,02,05,24,9.60
2010,06,02,05,25,14.50
2010,06,02,05,26,11.30
2010,06,02,05,27,8.10
2010,06,02,05,28,4.80
2010,06,02,05,29,6.40
2010,06,02,05,30,6.40
2010,06,02,05,31,4.80
2010,06,02,05,32,4.80
2010,06,02,05,33,6.40
2010,06,02,05,34,8.10
2010,06,02,05,35,8.10
2010,06,02,05,36,3.20
2010,06,02,05,37,4.80
2010,06,02,05,38,6.40
2010,06,02,05,39,9.60
2010,06,02,05,40,3.20
2010,06,02,05,41,4.80
2010,06,02,05,42,9.60
2010,06,02,05,43,6.40
2010,06,02,05,44,8.10
2010,06,02,05,45,8.10
2010,06,02,05,46,11.30
2010,06,02,05,47,6.40
2010,06,02,05,48,6.40
2010,06,02,05,49,4.80
2010,06,02,05,50,4.80
2010,06,02,05,51,8.10
2010,06,02,05,52,4.80
2010,06,02,05,53,11.30
2010,06,02,05,54,11.30
2010,06,02,05,55,4.80
2010,06,02,05,56,9.60
2010,06,02,05,57,4.80
2010,06,02,05,58,14.50
2010,06,02,05,59,4.80
2010,06,02,06,00,4.80
2010,06,02,06,01,6.40
2010,06,02,06,02,4.80
2010,06,02,06,03,8.10
2010,06,02,06,04,9.60
2010,06,02,06,05,6.40
2010,06,02,06,06,9.60
2010,06,02,06,07,8.10
2010,06,02,06,08,4.80
2010,06,02,06,09,4.80
2010,06,02,06,10,3.20
2010,06,02,06,11,4.80
2010,06,02,06,12,9.60
2010,06,02,06,13,8.10
2010,06,02,06,14,4.80
2010,06,02,06,15,8.10
2010,06,02,06,16,9.60
2010,06,02,06,17,6.40
2010,06,02,06,18,4.80
2010,06,02,06,19,8.10
2010,06,02,06,20,11.30
2010,06,02,06,21,6.40
2010,06,02,06,22,11.30
2010,06,02,06,23,6.40
2010,06,02,06,24,6.40
2010,06,02,06,25,4.80
2010,06,02,06,26,6.40
2010,06,02,06,27,3.20
2010,06,02,06,28,6.40
2010,06,02,06,29,4.80
2010,06,02,06,30,4.80
2010,06,02,06,31,4.80
2010,06,02,06,32,6.40
2010,06,02,06,33,9.60
2010,06,02,06,34,6.40
2010,06,02,06,35,11.30
2010,06,02,06,36,4.80
2010,06,02,06,37,6.40
2010,06,02,06,38,6.40
2010,06,02,06,39,6.40
2010,06,02,06,40,3.20
2010,06,02,06,41,4.80
2010,06,02,06,42,9.60
2010,06,02,06,43,8.10
2010,06,02,06,44,4.80
2010,06,02,06,45,3.20
2010,06,02,06,46,8.10
2010,06,02,06,47,4.80
2010,06,02,06,48,4.80
2010,06,02,06,49,8.10
2010,06,02,06,50,4.80
2010,06,02,06,51,8.10
2010,06,02,06,52,6.40
2010,06,02,06,53,6.40
2010,06,02,06,54,4.80
2010,06,02,06,55,6.40
2010,06,02,06,56,6.40
2010,06,02,06,57,6.40
2010,06,02,06,58,4.80
2010,06,02,06,59,4.80
2010,06,02,07,00,6.40
2010,06,02,07,01,8.10
2010,06,02,07,02,4.80
2010,06,02,07,03,8.10
2010,06,02,07,04,6.40
2010,06,02,07,05,1.60
2010,06,02,07,06,4.80
2010,06,02,07,07,4.80
2010,06,02,07,08,1.60
2010,06,02,07,09,4.80
2010,06,02,07,10,1.60
2010,06,02,07,11,4.80
2010,06,02,07,12,6.40
2010,06,02,07,13,6.40
2010,06,02,07,14,4.80
2010,06,02,07,16,1.60
2010,06,02,07,17,3.20
2010,06,02,07,18,1.60
2010,06,02,07,20,1.60
2010,06,02,07,23,1.60
2010,06,02,07,24,4.80
2010,06,02,07,25,4.80
2010,06,02,07,26,4.80
2010,06,02,07,27,6.40
2010,06,02,07,28,1.60
2010,06,02,07,29,3.20
2010,06,02,07,30,3.20
2010,06,02,07,31,4.80
2010,06,02,07,32,4.80
2010,06,02,07,33,1.60
2010,06,02,07,34,3.20
2010,06,02,07,35,6.40
2010,06,02,07,36,4.80
2010,06,02,07,37,3.20
2010,06,02,07,38,3.20
2010,06,02,07,39,4.80
2010,06,02,07,40,4.80
2010,06,02,07,41,3.20
2010,06,02,07,42,8.10
2010,06,02,07,43,6.40
2010,06,02,07,44,8.10
2010,06,02,07,45,3.20
2010,06,02,07,46,4.80
2010,06,02,07,47,3.20
2010,06,02,07,48,6.40
2010,06,02,07,49,3.20
2010,06,02,07,50,4.80
2010,06,02,07,51,6.40
2010,06,02,07,52,4.80
2010,06,02,07,53,4.80
2010,06,02,07,54,4.80
2010,06,02,07,55,1.60
2010,06,02,07,56,1.60
2010,06,02,07,58,6.40
2010,06,02,07,59,6.40
2010,06,02,08,00,4.80
2010,06,02,08,01,4.80
2010,06,02,08,02,6.40
2010,06,02,08,03,6.40
2010,06,02,08,04,9.60
2010,06,02,08,05,9.60
2010,06,02,08,06,4.80
2010,06,02,08,07,8.10
2010,06,02,08,08,4.80
2010,06,02,08,09,4.80
2010,06,02,08,10,9.60
2010,06,02,08,11,9.60
2010,06,02,08,12,11.30
2010,06,02,08,13,1.60
2010,06,02,08,14,6.40
2010,06,02,08,15,6.40
2010,06,02,08,16,6.40
2010,06,02,08,17,8.10
2010,06,02,08,18,6.40
2010,06,02,08,19,8.10
2010,06,02,08,20,3.20
2010,06,02,08,21,11.30
2010,06,02,08,22,8.10
2010,06,02,08,23,11.30
2010,06,02,08,24,4.80
2010,06,02,08,25,8.10
2010,06,02,08,26,11.30
2010,06,02,08,27,6.40
2010,06,02,08,28,3.20
2010,06,02,08,29,4.80
2010,06,02,08,30,8.10
2010,06,02,08,31,3.20
2010,06,02,08,32,9.60
2010,06,02,08,33,8.10
2010,06,02,08,34,4.80
2010,06,02,08,35,3.20
2010,06,02,08,36,4.80
2010,06,02,08,37,3.20
2010,06,02,08,38,6.40
2010,06,02,08,39,4.80
2010,06,02,08,40,3.20
2010,06,02,08,41,1.60
2010,06,02,08,42,1.60
2010,06,02,08,43,6.40
2010,06,02,08,44,1.60
2010,06,02,08,45,8.10
2010,06,02,08,46,3.20
2010,06,02,08,48,4.80
2010,06,02,08,49,4.80
2010,06,02,08,50,6.40
2010,06,02,08,51,6.40
2010,06,02,08,52,3.20
2010,06,02,08,53,3.20
2010,06,02,08,54,8.10
2010,06,02,08,55,4.80
2010,06,02,08,56,6.40
2010,06,02,08,57,8.10
2010,06,02,08,58,6.40
2010,06,02,08,59,8.10
2010,06,02,09,00,4.80
2010,06,02,09,01,9.60
2010,06,02,09,02,6.40
2010,06,02,09,03,9.60
2010,06,02,09,04,9.60
2010,06,02,09,05,6.40
2010,06,02,09,06,4.80
2010,06,02,09,07,4.80
2010,06,02,09,08,6.40
2010,06,02,09,09,3.20
2010,06,02,09,10,4.80
2010,06,02,09,11,3.20
2010,06,02,09,12,3.20
2010,06,02,09,13,3.20
2010,06,02,09,15,9.60
2010,06,02,09,16,9.60
2010,06,02,09,17,4.80
2010,06,02,09,18,1.60
2010,06,02,09,19,3.20
2010,06,02,09,20,3.20
2010,06,02,09,21,3.20
2010,06,02,09,22,8.10
2010,06,02,09,23,11.30
2010,06,02,09,24,11.30
2010,06,02,09,25,9.60
2010,06,02,09,26,8.10
2010,06,02,09,27,8.10
2010,06,02,09,28,11.30
2010,06,02,09,29,6.40
2010,06,02,09,30,6.40
2010,06,02,09,31,1.60
2010,06,02,09,32,1.60
2010,06,02,09,33,1.60
2010,06,02,09,34,8.10
2010,06,02,09,35,9.60
2010,06,02,09,36,9.60
2010,06,02,09,37,11.30
2010,06,02,09,38,8.10
2010,06,02,09,39,9.60
2010,06,02,09,40,6.40
2010,06,02,09,41,17.70
2010,06,02,09,42,8.10
2010,06,02,09,43,11.30
2010,06,02,09,44,11.30
2010,06,02,09,45,6.40
2010,06,02,09,46,6.40
2010,06,02,09,47,4.80
2010,06,02,09,48,6.40
2010,06,02,09,49,11.30
2010,06,02,09,50,8.10
2010,06,02,09,51,11.30
2010,06,02,09,52,8.10
2010,06,02,09,53,6.40
2010,06,02,09,54,6.40
2010,06,02,09,55,11.30
2010,06,02,09,56,9.60
2010,06,02,09,57,6.40
2010,06,02,09,58,6.40
2010,06,02,09,59,4.80
2010,06,02,10,00,6.40
2010,06,02,10,01,4.80
2010,06,02,10,02,1.60
2010,06,02,10,03,1.60
2010,06,02,10,04,8.10
2010,06,02,10,05,4.80
2010,06,02,10,06,3.20
2010,06,02,10,07,6.40
2010,06,02,10,08,4.80
2010,06,02,10,09,3.20
2010,06,02,10,10,3.20
2010,06,02,10,11,9.60
2010,06,02,10,12,9.60
2010,06,02,10,13,6.40
2010,06,02,10,14,4.80
2010,06,02,10,15,6.40
2010,06,02,10,16,1.60
2010,06,02,10,17,3.20
2010,06,02,10,18,6.40
2010,06,02,10,19,8.10
2010,06,02,10,20,8.10
2010,06,02,10,21,3.20
2010,06,02,10,22,1.60
2010,06,02,10,23,8.10
2010,06,02,10,24,8.10
2010,06,02,10,25,4.80
2010,06,02,10,26,3.20
2010,06,02,10,27,4.80
2010,06,02,10,28,3.20
2010,06,02,10,29,1.60
2010,06,02,10,30,1.60
2010,06,02,10,31,4.80
2010,06,02,10,32,1.60
2010,06,02,10,35,1.60
2010,06,02,10,36,3.20
2010,06,02,10,37,6.40
2010,06,02,10,38,4.80
2010,06,02,10,39,4.80
2010,06,02,10,41,1.60
2010,06,02,10,44,3.20
2010,06,02,10,45,1.60
2010,06,02,10,47,1.60
2010,06,02,10,48,1.60
2010,06,02,10,49,1.60
2010,06,02,10,50,1.60
2010,06,02,10,51,1.60
2010,06,02,10,52,1.60
2010,06,02,10,53,1.60
2010,06,02,10,54,4.80
2010,06,02,10,55,1.60
2010,06,02,10,56,1.60
2010,06,02,11,00,1.60
2010,06,02,11,04,1.60
2010,06,02,11,06,3.20
2010,06,02,11,07,1.60
2010,06,02,11,08,1.60
2010,06,02,11,09,1.60
2010,06,02,11,10,1.60
2010,06,02,11,11,1.60
2010,06,02,11,15,3.20
2010,06,02,11,16,3.20
2010,06,02,11,17,1.60
2010,06,02,11,18,3.20
2010,06,02,11,19,1.60
2010,06,02,11,20,1.60
2010,06,02,11,21,1.60
2010,06,02,11,23,1.60
2010,06,02,11,24,3.20
2010,06,02,11,25,1.60
2010,06,02,11,26,1.60
2010,06,02,11,27,3.20
2010,06,02,11,30,1.60
2010,06,02,11,31,1.60
2010,06,02,11,34,1.60
2010,06,02,11,36,3.20
2010,06,02,11,37,3.20
2010,06,02,11,38,3.20
2010,06,02,11,39,1.60
2010,06,02,11,40,1.60
2010,06,02,11,41,3.20
2010,06,02,11,42,6.40
2010,06,02,11,43,6.40
2010,06,02,11,44,6.40
2010,06,02,11,45,8.10
2010,06,02,11,46,3.20
2010,06,02,11,48,3.20
2010,06,02,11,49,4.80
2010,06,02,11,50,6.40
2010,06,02,11,51,8.10
2010,06,02,11,52,6.40
2010,06,02,11,53,4.80
2010,06,02,11,54,1.60
2010,06,02,11,55,3.20
2010,06,02,11,56,6.40
2010,06,02,11,57,8.10
2010,06,02,11,58,8.10
2010,06,02,11,59,8.10
2010,06,02,12,00,8.10
2010,06,02,12,01,8.10
2010,06,02,12,02,8.10
2010,06,02,12,03,6.40
2010,06,02,12,04,6.40
2010,06,02,12,05,6.40
2010,06,02,12,06,9.60
2010,06,02,12,07,9.60
2010,06,02,12,08,14.50
2010,06,02,12,09,9.60
2010,06,02,12,10,9.60
2010,06,02,12,11,11.30
2010,06,02,12,12,6.40
2010,06,02,12,13,8.10
2010,06,02,12,14,11.30
2010,06,02,12,15,8.10
2010,06,02,12,16,11.30
2010,06,02,12,17,9.60
2010,06,02,12,18,11.30
2010,06,02,12,19,8.10
2010,06,02,12,20,6.40
2010,06,02,12,21,9.60
2010,06,02,12,22,6.40
2010,06,02,12,23,9.60
2010,06,02,12,24,9.60
2010,06,02,12,25,8.10
2010,06,02,12,26,6.40
2010,06,02,12,27,8.10
2010,06,02,12,28,8.10
2010,06,02,12,29,9.60
2010,06,02,12,30,8.10
2010,06,02,12,31,6.40
2010,06,02,12,32,8.10
2010,06,02,12,33,9.60
2010,06,02,12,34,19.30
2010,06,02,12,35,16.10
2010,06,02,12,36,16.10
2010,06,02,12,37,14.50
2010,06,02,12,38,16.10
2010,06,02,12,39,17.70
2010,06,02,12,40,20.90
2010,06,02,12,41,16.10
2010,06,02,12,42,11.30
2010,06,02,12,43,17.70
2010,06,02,12,44,11.30
2010,06,02,12,45,17.70
2010,06,02,12,46,19.30
2010,06,02,12,47,17.70
2010,06,02,12,48,32.20
2010,06,02,12,49,29.00
2010,06,02,12,50,20.90
2010,06,02,12,51,24.20
2010,06,02,12,52,32.20
2010,06,02,12,53,30.60
2010,06,02,12,54,19.30
2010,06,02,12,55,20.90
2010,06,02,12,56,20.90
2010,06,02,12,57,22.50
2010,06,02,12,58,20.90
2010,06,02,12,59,29.00
2010,06,02,13,00,27.40
2010,06,02,13,01,19.30
2010,06,02,13,02,22.50
2010,06,02,13,03,16.10
2010,06,02,13,04,14.50
2010,06,02,13,05,17.70
2010,06,02,13,06,19.30
2010,06,02,13,07,14.50
2010,06,02,13,08,22.50
2010,06,02,13,09,20.90
2010,06,02,13,10,27.40
2010,06,02,13,11,27.40
2010,06,02,13,12,19.30
2010,06,02,13,13,24.20
2010,06,02,13,14,25.70
2010,06,02,13,15,22.50
2010,06,02,13,16,19.30
2010,06,02,13,17,16.10
2010,06,02,13,18,11.30
2010,06,02,13,19,11.30
2010,06,02,13,20,25.70
2010,06,02,13,21,27.40
2010,06,02,13,22,22.50
2010,06,02,13,23,20.90
2010,06,02,13,24,14.50
2010,06,02,13,25,11.30
2010,06,02,13,26,20.90
2010,06,02,13,27,16.10
2010,06,02,13,28,29.00
2010,06,02,13,29,22.50
2010,06,02,13,30,19.30
2010,06,02,13,31,22.50
2010,06,02,13,32,17.70
2010,06,02,13,33,17.70
2010,06,02,13,34,17.70
2010,06,02,13,35,17.70
2010,06,02,13,36,20.90
2010,06,02,13,37,19.30
2010,06,02,13,38,27.40
2010,06,02,13,39,17.70
2010,06,02,13,40,8.10
2010,06,02,13,41,14.50
2010,06,02,13,42,20.90
2010,06,02,13,43,16.10
2010,06,02,13,44,9.60
2010,06,02,13,45,17.70
2010,06,02,13,46,17.70
2010,06,02,13,47,16.10
2010,06,02,13,48,17.70
2010,06,02,13,49,32.20
2010,06,02,13,50,33.80
2010,06,02,13,51,32.20
2010,06,02,13,52,30.60
2010,06,02,13,53,27.40
2010,06,02,13,54,19.30
2010,06,02,13,55,25.70
2010,06,02,13,56,20.90
2010,06,02,13,57,16.10
2010,06,02,13,58,20.90
2010,06,02,13,59,17.70
2010,06,02,14,00,16.10
2010,06,02,14,01,24.20
2010,06,02,14,02,22.50
2010,06,02,14,03,20.90
2010,06,02,14,04,33.80
2010,06,02,14,05,24.20
2010,06,02,14,06,25.70
2010,06,02,14,07,25.70
2010,06,02,14,08,17.70
2010,06,02,14,09,35.40
2010,06,02,14,10,27.40
2010,06,02,14,11,19.30
2010,06,02,14,12,29.00
2010,06,02,14,13,32.20
2010,06,02,14,14,25.70
2010,06,02,14,15,30.60
2010,06,02,14,16,32.20
2010,06,02,14,17,25.70
2010,06,02,14,18,29.00
2010,06,02,14,19,27.40
2010,06,02,14,20,32.20
2010,06,02,14,21,35.40
2010,06,02,14,22,48.30
2010,06,02,14,23,32.20
2010,06,02,14,24,40.20
2010,06,02,14,25,35.40
2010,06,02,14,26,35.40
2010,06,02,14,27,30.60
2010,06,02,14,28,35.40
2010,06,02,14,29,35.40
2010,06,02,14,30,29.00
2010,06,02,14,31,32.20
2010,06,02,14,32,29.00
2010,06,02,14,33,19.30
2010,06,02,14,34,22.50
2010,06,02,14,35,33.80
2010,06,02,14,36,40.20
2010,06,02,14,37,22.50
2010,06,02,14,38,14.50
2010,06,02,14,39,24.20
2010,06,02,14,40,24.20
2010,06,02,14,41,30.60
2010,06,02,14,42,16.10
2010,06,02,14,43,37.00
2010,06,02,14,44,22.50
2010,06,02,14,45,35.40
2010,06,02,14,46,22.50
2010,06,02,14,47,17.70
2010,06,02,14,48,27.40
2010,06,02,14,49,25.70
2010,06,02,14,50,29.00
2010,06,02,14,51,33.80
2010,06,02,14,52,37.00
2010,06,02,14,53,29.00
2010,06,02,14,54,27.40
2010,06,02,14,55,24.20
2010,06,02,14,56,27.40
2010,06,02,14,57,32.20
2010,06,02,14,58,43.50
2010,06,02,14,59,35.40
2010,06,02,15,00,32.20
2010,06,02,15,01,30.60
2010,06,02,15,02,37.00
2010,06,02,15,03,40.20
2010,06,02,15,04,40.20
2010,06,02,15,05,25.70
2010,06,02,15,06,22.50
2010,06,02,15,07,27.40
2010,06,02,15,08,33.80
2010,06,02,15,09,30.60
2010,06,02,15,10,43.50
2010,06,02,15,11,41.80
2010,06,02,15,12,33.80
2010,06,02,15,13,30.60
2010,06,02,15,14,37.00
2010,06,02,15,15,51.50
2010,06,02,15,16,46.70
2010,06,02,15,17,48.30
2010,06,02,15,18,40.20
2010,06,02,15,19,37.00
2010,06,02,15,20,35.40
2010,06,02,15,21,54.70
2010,06,02,15,22,51.50
2010,06,02,15,23,46.70
2010,06,02,15,24,41.80
2010,06,02,15,25,41.80
2010,06,02,15,26,41.80
2010,06,02,15,27,37.00
2010,06,02,15,28,45.10
2010,06,02,15,29,49.90
2010,06,02,15,30,33.80
2010,06,02,15,31,30.60
2010,06,02,15,32,35.40
2010,06,02,15,33,49.90
2010,06,02,15,34,45.10
2010,06,02,15,35,43.50
2010,06,02,15,36,53.10
2010,06,02,15,37,35.40
2010,06,02,15,38,37.00
2010,06,02,15,39,38.60
2010,06,02,15,40,41.80
2010,06,02,15,41,40.20
2010,06,02,15,42,45.10
2010,06,02,15,43,45.10
2010,06,02,15,44,48.30
2010,06,02,15,45,57.90
2010,06,02,15,46,27.40
2010,06,02,15,47,41.80
2010,06,02,15,48,46.70
2010,06,02,15,49,53.10
2010,06,02,15,50,54.70
2010,06,02,15,51,33.80
2010,06,02,15,52,43.50
2010,06,02,15,53,45.10
2010,06,02,15,54,30.60
2010,06,02,15,55,33.80
2010,06,02,15,56,41.80
2010,06,02,15,57,49.90
2010,06,02,15,58,40.20
2010,06,02,15,59,40.20
2010,06,02,16,00,40.20
2010,06,02,16,01,27.40
2010,06,02,16,02,38.60
2010,06,02,16,03,30.60
2010,06,02,16,04,37.00
2010,06,02,16,05,33.80
2010,06,02,16,06,38.60
2010,06,02,16,07,33.80
2010,06,02,16,08,25.70
2010,06,02,16,09,17.70
2010,06,02,16,10,22.50
2010,06,02,16,11,22.50
2010,06,02,16,12,38.60
2010,06,02,16,13,43.50
2010,06,02,16,14,37.00
2010,06,02,16,15,35.40
2010,06,02,16,16,38.60
2010,06,02,16,17,46.70
2010,06,02,16,18,41.80
2010,06,02,16,19,49.90
2010,06,02,16,20,43.50
2010,06,02,16,21,49.90
2010,06,02,16,22,53.10
2010,06,02,16,23,56.30
2010,06,02,16,24,40.20
2010,06,02,16,25,53.10
2010,06,02,16,26,48.30
2010,06,02,16,27,41.80
2010,06,02,16,28,43.50
2010,06,02,16,29,56.30
2010,06,02,16,30,40.20
2010,06,02,16,31,37.00
2010,06,02,16,32,48.30
2010,06,02,16,33,46.70
2010,06,02,16,34,45.10
2010,06,02,16,35,33.80
2010,06,02,16,36,33.80
2010,06,02,16,37,37.00
2010,06,02,16,38,35.40
2010,06,02,16,39,56.30
2010,06,02,16,40,40.20
2010,06,02,16,41,29.00
2010,06,02,16,42,48.30
2010,06,02,16,43,38.60
2010,06,02,16,44,33.80
2010,06,02,16,45,46.70
2010,06,02,16,46,41.80
2010,06,02,16,47,37.00
2010,06,02,16,48,43.50
2010,06,02,16,49,41.80
2010,06,02,16,50,54.70
2010,06,02,16,51,53.10
2010,06,02,16,52,51.50
2010,06,02,16,53,56.30
2010,06,02,16,54,53.10
2010,06,02,16,55,43.50
2010,06,02,16,56,45.10
2010,06,02,16,57,49.90
2010,06,02,16,58,61.20
2010,06,02,16,59,40.20
2010,06,02,17,00,53.10
2010,06,02,17,01,53.10
2010,06,02,17,02,53.10
2010,06,02,17,03,54.70
2010,06,02,17,04,53.10
2010,06,02,17,05,40.20
2010,06,02,17,06,61.20
2010,06,02,17,07,37.00
2010,06,02,17,08,43.50
2010,06,02,17,09,46.70
2010,06,02,17,10,46.70
2010,06,02,17,11,49.90
2010,06,02,17,12,41.80
2010,06,02,17,13,43.50
2010,06,02,17,14,40.20
2010,06,02,17,15,40.20
2010,06,02,17,16,49.90
2010,06,02,17,17,54.70
2010,06,02,17,18,43.50
2010,06,02,17,19,37.00
2010,06,02,17,20,30.60
2010,06,02,17,21,46.70
2010,06,02,17,22,51.50
2010,06,02,17,23,41.80
2010,06,02,17,24,41.80
2010,06,02,17,25,35.40
2010,06,02,17,26,51.50
2010,06,02,17,27,46.70
2010,06,02,17,28,51.50
2010,06,02,17,29,51.50
2010,06,02,17,30,49.90
2010,06,02,17,31,35.40
2010,06,02,17,32,51.50
2010,06,02,17,33,32.20
2010,06,02,17,34,53.10
2010,06,02,17,35,51.50
2010,06,02,17,36,49.90
2010,06,02,17,37,38.60
2010,06,02,17,38,33.80
2010,06,02,17,39,53.10
2010,06,02,17,40,41.80
2010,06,02,17,41,45.10
2010,06,02,17,42,40.20
2010,06,02,17,43,57.90
2010,06,02,17,44,49.90
2010,06,02,17,45,37.00
2010,06,02,17,46,51.50
2010,06,02,17,47,38.60
2010,06,02,17,48,35.40
2010,06,02,17,49,37.00
2010,06,02,17,50,46.70
2010,06,02,17,51,45.10
2010,06,02,17,52,40.20
2010,06,02,17,53,37.00
2010,06,02,17,54,30.60
2010,06,02,17,55,41.80
2010,06,02,17,56,41.80
2010,06,02,17,57,43.50
2010,06,02,17,58,29.00
2010,06,02,17,59,37.00
2010,06,02,18,00,30.60
2010,06,02,18,01,38.60
2010,06,02,18,02,56.30
2010,06,02,18,03,66.00
2010,06,02,18,04,61.20
2010,06,02,18,05,46.70
2010,06,02,18,06,45.10
2010,06,02,18,07,64.40
2010,06,02,18,08,57.90
2010,06,02,18,09,62.70
2010,06,02,18,10,67.60
2010,06,02,18,11,64.40
2010,06,02,18,12,54.70
2010,06,02,18,13,46.70
2010,06,02,18,14,64.40
2010,06,02,18,15,61.20
2010,06,02,18,16,49.90
2010,06,02,18,17,49.90
2010,06,02,18,18,51.50
2010,06,02,18,19,49.90
2010,06,02,18,20,54.70
2010,06,02,18,21,41.80
2010,06,02,18,22,37.00
2010,06,02,18,23,43.50
2010,06,02,18,24,45.10
2010,06,02,18,25,41.80
2010,06,02,18,26,30.60
2010,06,02,18,27,33.80
2010,06,02,18,28,37.00
2010,06,02,18,29,56.30
2010,06,02,18,30,43.50
2010,06,02,18,31,54.70
2010,06,02,18,32,40.20
2010,06,02,18,33,49.90
2010,06,02,18,34,35.40
2010,06,02,18,35,33.80
2010,06,02,18,36,45.10
2010,06,02,18,37,38.60
2010,06,02,18,38,49.90
2010,06,02,18,39,54.70
2010,06,02,18,40,53.10
2010,06,02,18,41,49.90
2010,06,02,18,42,46.70
2010,06,02,18,43,54.70
2010,06,02,18,44,53.10